Kuiper-00039

operational
NORAD ID: 64500 Int'l Des: 2025-134 Owner: KUIP Country: US Constellation: kuiper
LEOCIRCULAR

About Kuiper-00039

Description loading...

Live Position

Loading 3D Globe...

Upcoming Passes

Altitude History

Altitude vs Time

uPlot chart will show altitude changes over time

Two-Line Element Set

1 64500U 25134A 25315.18267296 .00006046 00000-0 81959-3 0 9998
2 64500 51.9023 37.1129 0011475 259.7722 100.1946 14.79999535 22525
Epoch: Nov 11, 2025 • Age: 28 hours

Current Status

Altitude 632.1 km
Velocity 7.54 km/s
Sub-Earth Point 10.87°N, 131.02°W
Launch Date Jun 23, 2025
Age 0.3 years
Type internet

Technical Details

Classification Payload
Mass 490.00 kg
Dry Mass 490.00 kg
Total Mass 490.00 kg
Length 1.80 m
Diameter 0.70 m
Span 5.00 m
Shape Box + 2 pan
Manufacturer KUIP
Bus Type Kuiper
Phase Status In Orbit
Owner/State KUIP/US

Large Constellations

Loading constellations...